COSMOS 2251 DEB, 34909

Orbit data source: Space-Track

COSMOS 2251 DEB, 34909 is space debris in LEO originally from a launch on Wed, 16 Jun 1993 UTC launched from the Plesetsk Missile And Space Complex (PKMTR). The debris from Iridium 33, an American commercial communications satellite, has been tracked extensively since its accidental collision with the defunct Russian satellite Cosmos 2251 in 2009. This event, occurring at high speed in low Earth orbit (LEO), generated thousands of pieces of space debris, significantly increasing the risk of further collisions. The Iridium 33 debris cloud has impacted space traffic management and orbital debris mitigation strategies, making it a subject of ongoing study in space situational awareness.

Loading next visibility...
Identifier
34909, 1993-036ADE
Orbit
LEO
Country
Flag of CISCIS
Related business
Manufacturer
Unknown
Mission
Spacecraft
Bus & Motor
Unknown
Mass
Unknown
Launch date (UTC)
1993-06-16 (33 years ago)
Launch vehicle
Unknown
Launch site
Plesetsk Missile And Space Complex (PKMTR)
Object type
Payload
Rocket body
Debris
Shape & HBR
Unknown shape, 0.1 m
Radar Cross Section
Small (<0.1 m²)

Expand to show TLE details & history
Last TLE update: 14 hours ago

TLE from 14 hours ago
0 COSMOS 2251 DEB
1 34909U 93036ADE 26037.20177579  .00005379  00000-0  70366-3 0  9991
2 34909  74.0159 327.4948 0081841  88.4090 272.6458 14.78313441676718
Epoch: 2026-02-06T04:50Z
TLE epoch observation values (Epoch: 2026-02-06T04:50:33.428Z)
Latitude
0.00001°
Longitude
118.51247°
Altitude
635.133 km
Speed
7.542 km/s
True Right ascension
21h 49m 58s
True Declination
0° 00' 00"
Sunlit
Object was in daylight at epoch
Visualization orbit readout
Latitude
Unknown
Longitude
Unknown
Altitude
Unknown
Speed
Unknown
Apparent Right ascension
Unknown
Apparent Declination
Unknown
Sunlit
N/A
Visualization observer readout
Local Sidereal Time
21:16:17
Azimuth
Unknown
Elevation
Unknown
Doppler factor
Unknown
Orbital elements
Apogee altitude
689.605 km
Perigee altitude
574.858 km
Semi-major axis
7,010.369 km
Eccentricity
0.00818
Inclination
74.0159°
RAAN
327.4948°
Arg. of periapsis
88.409°
True anomaly
271.70857°
Mean anomaly
272.6458°
Eccentric anomaly
272.17722°
Mean motion
3.6977 °/min
Orbital period
97.36 mins
BSTAR
0.00070366
Loading maneuver chart data...
Computing Atmospheric mass density...

Documentation

Showing up to 5 results
|